This is the latest recevied weather packets stored in our database for station/object KC1BRV. If no packets are shown the sender has not sent any weather packets the latest 10 day(s).
| Time | Temp. | Humidity | Pressure | Rain* | Wind** | Luminosity | Snow |
|---|---|---|---|---|---|---|---|
| 1777929866 | 18.33° C | 42% | 1010.3 hPa | 0 mm | - | 45 W/m² | - |
| 1777929565 | 18.33° C | 42% | 1010.3 hPa | 0 mm | - | 47 W/m² | - |
| 1777929260 | 18.33° C | 42% | 1010.4 hPa | 0 mm | - | 49 W/m² | - |
| 1777928958 | 18.33° C | 43% | 1010.5 hPa | 0 mm | - | 50 W/m² | - |
| 1777928655 | 18.33° C | 42% | 1010.3 hPa | 0 mm | - | 51 W/m² | - |
| 1777928352 | 18.33° C | 41% | 1010.2 hPa | 0 mm | - | 52 W/m² | - |
| 1777928050 | 18.33° C | 41% | 1010 hPa | 0 mm | - | 54 W/m² | - |
| 1777927747 | 18.89° C | 41% | 1010.2 hPa | 0 mm | - | 54 W/m² | - |
| 1777927446 | 18.89° C | 41% | 1010.2 hPa | 0 mm | - | 56 W/m² | - |
| 1777927145 | 18.89° C | 41% | 1010 hPa | 0 mm | - | 57 W/m² | - |
| 1777926841 | 18.89° C | 40% | 1010 hPa | 0 mm | - | 59 W/m² | - |
| 1777926537 | 19.44° C | 40% | 1010.4 hPa | 0 mm | - | 61 W/m² | - |
| 1777926234 | 19.44° C | 40% | 1010 hPa | 0 mm | - | 146 W/m² | - |
| 1777925931 | 20° C | 39% | 1010.1 hPa | 0 mm | - | 405 W/m² | - |
| 1777925628 | 20° C | 39% | 1010 hPa | 0 mm | - | 414 W/m² | - |
| 1777925326 | 20° C | 38% | 1010 hPa | 0 mm | - | 435 W/m² | - |
| 1777925022 | 19.44° C | 38% | 1010.2 hPa | 0 mm | - | 452 W/m² | - |
| 1777924719 | 19.44° C | 38% | 1010.1 hPa | 0 mm | - | 468 W/m² | - |
| 1777924415 | 19.44° C | 37% | 1009.9 hPa | 0 mm | - | 482 W/m² | - |
| 1777924112 | 19.44° C | 38% | 1010.1 hPa | 0 mm | - | 490 W/m² | - |
| 1777923807 | 20° C | 37% | 1010.1 hPa | 0 mm | - | 498 W/m² | - |
| 1777923503 | 20° C | 39% | 1010 hPa | 0 mm | - | 512 W/m² | - |
| 1777923201 | 20° C | 36% | 1010.1 hPa | 0 mm | - | 530 W/m² | - |
| 1777922900 | 20° C | 37% | 1010.2 hPa | 0 mm | - | 536 W/m² | - |
| 1777922597 | 20° C | 35% | 1010.1 hPa | 0 mm | - | 546 W/m² | - |
* Rain latest hour (hover to see other rain measurements)
** Current wind speed in m/s (hover to see current wind gust speed)